Regional Weather Roundup
Issued by NWS

Home | Current Version | Previous Version | Graphics & Text | Print | Product List | Glossary On
Versions: 1 2 3 4 5 6 7 8 9 10 11 12 13 14 15 16 17 18 19 20 21 22 23 24 25 26 27 28 29 30 31 32 33 34 35 36 37 38 39 40 41 42 43 44 45 46 47 48 49 50
000
ASUS43 KDMX 240606
RWRIA

WEATHER ROUNDUP FOR IOWA
NATIONAL WEATHER SERVICE DES MOINES IA
100 AM CDT TUE APR 24 2018

NOTE: "FAIR" INDICATES FEW OR NO CLOUDS BELOW 12,000 FEET WITH NO
SIGNIFICANT WEATHER AND/OR OBSTRUCTIONS TO VISIBILITY.

* - THESE STATIONS ARE NOT NWS STATIONS...THUS NOT UNDER NWS
QUALITY CONTROL.  THEY ALSO DO NOT REPORT WEATHER SUCH
AS PRECIPITATION OR FOG.

IAZ001>003-012>014-020>022-031>034-043>046-240700-
   NORTHWEST IOWA

CITY           SKY/WX    TMP DP  RH WIND       PRES   REMARKS
CARROLL *      CLOUDY    46  39  76 N5        30.13S
CHEROKEE *     CLEAR     44  41  89 CALM      30.15R
DENISON *      CLOUDY    48  39  71 CALM      30.15R
LE MARS *      CLOUDY    46  41  81 NE5       30.14S
ORANGE CITY *  CLOUDY    48  43  81 E3        30.15R
SHELDON *      PTCLDY    43  39  87 CALM      30.13S
SIOUX CITY     PTCLDY    49  40  71 CALM      30.14R
6HR MIN TEMP:  48; 6HR MAX TEMP:  70;

SPENCER        CLOUDY    41  37  86 CALM      30.15S
6HR MIN TEMP:  41; 6HR MAX TEMP:  64;

STORM LAKE *   CLEAR     48  41  76 NE8       30.14S
$$

IAZ055>058-069>071-079>083-090>094-240700-
   SOUTHWEST IOWA

CITY           SKY/WX    TMP DP  RH WIND       PRES   REMARKS
ATLANTIC *     CLEAR     45  36  70 N6        30.12R
AUDUBON *      CLEAR     48  43  81 NE3       30.13F
CLARINDA *     PTCLDY    45  32  61 NE6       30.11S
COUNCIL BLFS * CLEAR     54  37  54 NE12      30.11R
CRESTON *      CLEAR     54  28  37 N10       30.10S
HARLAN  *      CLOUDY    52  41  66 N7        30.15S
LAMONI         CLEAR     54  29  38 N5        30.07S
6HR MIN TEMP:  50; 6HR MAX TEMP:  69;

RED OAK *      CLEAR     46  30  53 CALM      30.11R
SHENANDOAH *   CLEAR     45  34  65 NE8       30.10R
$$

IAZ047>049-059>061-072>074-084-240700-
   CENTRAL IOWA

CITY           SKY/WX    TMP DP  RH WIND       PRES   REMARKS
AMES           CLEAR     49  37  63 NW5       30.11R
6HR MIN TEMP:  49; 6HR MAX TEMP:  70;

ANKENY *       CLEAR     46  34  61 N6        30.11S
BOONE *        CLEAR     48  41  76 N9        30.11S
CHARITON *     CLEAR     52  28  40 N7        30.08R
DES MOINES     PTCLDY    54  32  43 NE6       30.10S
6HR MIN TEMP:  54; 6HR MAX TEMP:  72;

GRINNELL*      CLEAR     49  29  45 NE8       30.10S
KNOXVILLE *    PTCLDY    54  27  35 N6        30.07S
MARSHALLTOWN   CLEAR     46  33  60 NE7       30.10R
6HR MIN TEMP:  42; 6HR MAX TEMP:  69;

NEWTON *       CLEAR     50  30  46 N7        30.10R
PELLA *        CLEAR     50  28  42 NE5       30.10R
PERRY *        FAIR      47  35  61 N6        30.11S
$$

IAZ004>006-015-016-023>025-035-036-240700-
   NORTH CENTRAL IOWA

CITY           SKY/WX    TMP DP  RH WIND       PRES   REMARKS
ALGONA *       CLEAR     46  41  81 N6        30.14F
CLARION *      PTCLDY    45  41  87 N5        30.14R
ESTHERVILLE    CLOUDY    41  37  86 NW7       30.15S
6HR MIN TEMP:  41; 6HR MAX TEMP:  59;

FORT DODGE *   CLEAR     51  42  71 N6        30.14R
MASON CITY     CLEAR     42  38  85 CALM      30.15R
6HR MIN TEMP:  42; 6HR MAX TEMP:  64;

FOREST CITY *  FAIR      43  43 100 CALM      30.14S
WEBSTER CITY * CLEAR     45  41  87 N7        30.11S
IOWA FALLS *   FAIR      46  38  73 CALM      30.13R
$$

IAZ007>011-017>019-026>030-037>042-050>054-066-240700-
   NORTHEAST IOWA

CITY           SKY/WX    TMP DP  RH WIND       PRES   REMARKS
CEDAR RAPIDS   FAIR      52  28  39 E8        30.08S
6HR MIN TEMP:  52; 6HR MAX TEMP:  69;

CHARLES CITY * FAIR      50  36  57 NE7       30.13R
CLINTON *      FAIR      48  34  58 NE8       30.09S
DECORAH *      FAIR      48  34  57 CALM      30.11S
DUBUQUE        FAIR      49  32  52 NE8       30.10S
6HR MIN TEMP:  47; 6HR MAX TEMP:  63;

MONTICELLO *   FAIR      46  32  57 CALM      30.09S
OELWEIN *      FAIR      50  32  50 NE6       30.12R
WATERLOO       FAIR      41  34  76 CALM      30.11R
6HR MIN TEMP:  39; 6HR MAX TEMP:  67;

$$

IAZ064-065-067-068-078-240700-
   EAST CENTRAL IOWA

CITY           SKY/WX    TMP DP  RH WIND       PRES   REMARKS
DAVENPORT      FAIR      52  32  46 E7        30.10R
6HR MIN TEMP:  52; 6HR MAX TEMP:  68;

IOWA CITY      FAIR      53  27  36 NE7       30.09S
6HR MIN TEMP:  53; 6HR MAX TEMP:  67;

MT. PLEASANT * PTCLDY    48  32  53 NE6       30.07R
MUSCATINE *    FAIR      52  34  50 NE6       30.07F
QUAD CITIES    FAIR      55  39  54 E10       30.07R
6HR MIN TEMP:  52; 6HR MAX TEMP:  70;

$$

IAZ062-063-075>077-085>089-095>099-240700-
   SOUTHEAST IOWA

CITY           SKY/WX    TMP DP  RH WIND       PRES   REMARKS
BURLINGTON     CLEAR     53  45  74 N5        30.05S
6HR MIN TEMP:  53; 6HR MAX TEMP:  70;

FAIRFIELD *    CLOUDY    52  30  43 NE8       30.06S
FORT MADISON * CLEAR     54  46  76 CALM      30.06S
KEOKUK *       CLEAR     54  48  82 N5        30.04S
OSKALOOSA *    FAIR      48  28  45 NE9       30.08R
CENTERVILLE *    N/A     48  28  46 CALM      30.07F
OTTUMWA        CLEAR     50  28  42 N9        30.07R
6HR MIN TEMP:  50; 6HR MAX TEMP:  69;

WASHINGTON *   CLOUDY    52  32  46 NE8       30.08S
$$

ABBREVIATIONS USED IN REMARKS
   TC - TEMPERATURES IN CELSIUS
  WCI - WIND CHILL INDEX
   HX - HEAT INDEX
  VSB - VISIBILITY
$$




USA.gov is the U.S. government's official web portal to all federal, state and local government web resources and services.